Paris Le Bourget, France

6:25 PM CEST on July 28, 2017 (GMT +0200)
Le Bourget

Weather History for LFPB - November, 2012

Change the Weather History Date:

Saturday, November 24, 2012

  Actual Average Record
Temperature  
Mean Temperature 50 °F -  
Max Temperature 59 °F 44 °F 59 °F (2006)
Min Temperature 44 °F 37 °F 15 °F (1998)
Degree Days  
Heating Degree Days 14    
Moisture  
Dew Point 46 °F    
Average Humidity 88    
Maximum Humidity 94    
Minimum Humidity 67    
Precipitation  
Precipitation 0.00 in 0.07 in - ()
Sea Level Pressure  
Sea Level Pressure 29.91 in    
Wind  
Wind Speed 5 mph ()    
Max Wind Speed 20 mph    
Max Gust Speed -    
Visibility 6.2 miles    
Events      
Averages and records for this station are not official NWS values.
T = Trace of Precipitation, MM = Missing Value Source: Averaged Metar Reports

Daily Weather History Graph

Daily Weather History Graph

Search for Another Location

Airport or City:

Trip Planner

Search our weather history database for the weather conditions in past years. The results will help you decide how hot, cold, wet, or windy it might be!

Date:

Astronomy

Nov. 24, 2012 Rise Set
Actual Time 8:13 AM CET 5:00 PM CET
Civil Twilight 7:37 AM CET 5:35 PM CET
Nautical Twilight 6:58 AM CET 6:15 PM CET
Astronomical Twilight 6:20 AM CET 6:52 PM CET
Moon 2:51 PM CET (11/24) 3:59 AM CET (11/24)
Length of Visible Light 9h 57m
Length of Day
8h 46m
Waxing Gibbous, 85% of the Moon is Illuminated
Nov 24
Waxing Gibbous
Nov 28
Full
Dec 6
Last Quarter
Dec 13
New
Dec 20
First Quarter

Hourly Weather History & Observations

Time (CET) Temp. Windchill Dew Point Humidity Pressure Visibility Wind Dir Wind Speed Gust Speed Precip Events Conditions
12:00 AM 50.0 °F - 48.2 °F 94% 30.04 in 5.6 mi SSW 4.6 mph - N/A   Overcast
12:30 AM 50.0 °F - 48.2 °F 94% 30.04 in 6.2 mi SSW 4.6 mph - N/A   Mostly Cloudy
1:00 AM 50.0 °F - 48.2 °F 94% 30.04 in 6.2 mi SSW 3.5 mph - N/A   Mostly Cloudy
1:30 AM 50.0 °F - 46.4 °F 87% 30.04 in 6.2 mi SSE 4.6 mph - N/A   Overcast
2:00 AM 48.2 °F - 46.4 °F 93% 30.04 in 6.2 mi SSE 3.5 mph - N/A   Unknown
2:30 AM 48.2 °F - 46.4 °F 93% 30.04 in 6.2 mi SSE 5.8 mph - N/A   Overcast
3:00 AM 48.2 °F - 46.4 °F 93% 30.04 in 6.2 mi SSE 3.5 mph - N/A   Unknown
3:30 AM 48.2 °F - 46.4 °F 93% 30.01 in 6.2 mi SE 3.5 mph - N/A   Unknown
4:00 AM 46.4 °F 45.2 °F 44.6 °F 93% 30.01 in 6.2 mi SSE 3.5 mph - N/A   Unknown
4:30 AM 46.4 °F 45.2 °F 44.6 °F 93% 30.01 in 6.2 mi SSE 3.5 mph - N/A   Unknown
5:00 AM 46.4 °F 44.3 °F 44.6 °F 93% 30.01 in 6.2 mi SE 4.6 mph - N/A   Unknown
5:30 AM 44.6 °F 43.1 °F 42.8 °F 93% 30.01 in 6.2 mi East 3.5 mph - N/A   Unknown
6:00 AM 44.6 °F - 42.8 °F 93% 30.01 in 6.2 mi Variable 2.3 mph - N/A   Unknown
6:30 AM 44.6 °F 43.1 °F 42.8 °F 93% 30.01 in 6.2 mi East 3.5 mph - N/A   Unknown
7:00 AM 44.6 °F 43.1 °F 42.8 °F 93% 30.01 in 6.2 mi ESE 3.5 mph - N/A   Unknown
7:30 AM 44.6 °F 42.2 °F 42.8 °F 93% 29.98 in 6.2 mi SE 4.6 mph - N/A   Unknown
8:00 AM 44.6 °F 43.1 °F 42.8 °F 93% 30.01 in 6.2 mi ESE 3.5 mph - N/A   Unknown
8:30 AM 44.6 °F 43.1 °F 42.8 °F 93% 30.01 in 6.2 mi East 3.5 mph - N/A   Unknown
9:00 AM 44.6 °F - 42.8 °F 93% 30.01 in 6.2 mi East 2.3 mph - N/A   Unknown
9:30 AM 46.4 °F 45.2 °F 44.6 °F 93% 30.01 in 6.2 mi ESE 3.5 mph - N/A   Unknown
10:00 AM 46.4 °F 45.2 °F 44.6 °F 93% 29.98 in 6.2 mi ESE 3.5 mph - N/A   Unknown
10:30 AM 48.2 °F - 44.6 °F 87% 29.98 in 6.2 mi East 3.5 mph - N/A   Unknown
11:00 AM 48.2 °F - 44.6 °F 87% 29.98 in 6.2 mi ENE 3.5 mph - N/A   Unknown
11:30 AM 48.2 °F - 46.4 °F 93% 29.98 in 6.2 mi East 2.3 mph - N/A   Unknown
12:00 PM 50.0 °F - 44.6 °F 82% 29.95 in 6.2 mi East 3.5 mph - N/A   Unknown
12:30 PM 50.0 °F - 46.4 °F 87% 29.95 in 6.2 mi ESE 3.5 mph - N/A   Unknown
1:00 PM 50.0 °F - 46.4 °F 87% 29.92 in 6.2 mi ENE 6.9 mph - N/A   Unknown
1:30 PM 50.0 °F - 46.4 °F 87% 29.89 in 6.2 mi East 6.9 mph - N/A   Unknown
2:00 PM 50.0 °F - 46.4 °F 87% 29.89 in 6.2 mi Variable 2.3 mph - N/A   Unknown
2:30 PM 50.0 °F - 46.4 °F 87% 29.86 in 6.2 mi ENE 6.9 mph - N/A   Unknown
3:00 PM 50.0 °F - 46.4 °F 87% 29.86 in 6.2 mi East 4.6 mph - N/A   Unknown
3:30 PM 50.0 °F - 46.4 °F 87% 29.86 in 6.2 mi East 5.8 mph - N/A   Unknown
4:00 PM 50.0 °F - 46.4 °F 87% 29.83 in 6.2 mi East 4.6 mph - N/A   Unknown
4:30 PM 50.0 °F - 46.4 °F 87% 29.83 in 6.2 mi East 5.8 mph - N/A   Unknown
5:00 PM 51.8 °F - 46.4 °F 82% 29.80 in 6.2 mi ESE 5.8 mph - N/A   Unknown
5:30 PM 50.0 °F - 46.4 °F 87% 29.80 in 6.2 mi SE 5.8 mph - N/A   Unknown
6:00 PM 50.0 °F - 46.4 °F 87% 29.80 in 6.2 mi ESE 5.8 mph - N/A   Unknown
6:30 PM 50.0 °F - 46.4 °F 87% 29.80 in 6.2 mi SE 6.9 mph - N/A   Unknown
7:00 PM 51.8 °F - 46.4 °F 82% 29.77 in 6.2 mi SE 6.9 mph - N/A   Unknown
7:30 PM 51.8 °F - 46.4 °F 82% 29.77 in 6.2 mi SE 6.9 mph - N/A   Unknown
8:00 PM 51.8 °F - 48.2 °F 88% 29.74 in 6.2 mi SE 5.8 mph - N/A   Unknown
8:30 PM 53.6 °F - 48.2 °F 82% 29.74 in 6.2 mi SSE 6.9 mph - N/A   Unknown
9:00 PM 53.6 °F - 48.2 °F 82% 29.71 in 6.2 mi SSE 11.5 mph - N/A   Unknown
9:30 PM 55.4 °F - 48.2 °F 77% 29.71 in 6.2 mi South 16.1 mph - N/A   Unknown
10:00 PM 55.4 °F - 48.2 °F 77% 29.68 in 6.2 mi South 16.1 mph - N/A   Unknown
10:30 PM 55.4 °F - 48.2 °F 77% 29.68 in 6.2 mi South 16.1 mph - N/A   Unknown
11:00 PM 57.2 °F - 46.4 °F 67% 29.68 in 6.2 mi South 17.3 mph - N/A   Mostly Cloudy
11:30 PM 59.0 °F - 48.2 °F 67% 29.68 in 6.2 mi SSW 19.6 mph - N/A   Overcast